Wind_Speed
40 37 29 39 46 50 46 37 35 31 26 23 21 20 18 20 16 19 19 17 15 17 25 33 38 39 39 38 37 34 30 26 27
35 37 40 43 28 38 39 31 27 24 21 21 18 17 19 19 16 17 22 23 23 19 21 27 37 43 42 38 38 35 32 28 30
47 41 54 40 36 34 31 29 28 24 21 22 18 19 20 20 19 20 25 29 28 29 26 25 33 46 46 45 38 29 28 26 30
40 49 59 52 35 24 21 29 30 28 23 24 24 20 22 22 25 23 24 29 28 30 30 28 28 37 47 48 47 47 40 30 27
40 39 43 46 46 38 37 35 34 32 29 26 25 23 23 23 23 19 26 29 24 24 28 30 25 32 36 50 47 51 46 37 28
53 54 49 47 48 46 44 47 37 32 32 29 30 28 29 23 20 20 23 30 21 19 24 28 25 24 28 29 36 37 43 47 38
38 36 43 48 48 51 39 32 31 31 29 30 30 29 25 22 23 22 22 25 21 15 20 24 25 21 22 19 12 13 24 35 37
44 41 44 48 42 44 45 38 33 30 28 26 29 27 25 24 24 21 23 27 18 12 19 24 24 20 19 19 16 13 15 20 34
52 36 37 37 45 44 44 41 33 34 29 27 29 30 29 25 23 23 18 19 22 12 15 22 23 22 22 26 21 20 19 23 28
55 45 53 48 38 39 36 37 33 34 32 29 32 32 31 28 24 22 18 20 22 14 16 20 23 23 26 29 27 24 19 27 27
44 57 50 40 41 36 35 38 34 31 32 30 31 33 31 31 27 22 18 21 20 16 18 24 21 22 20 27 29 27 26 26 29
58 51 48 41 40 31 34 41 33 31 32 31 31 32 31 31 31 27 25 21 19 15 16 27 25 23 21 24 30 31 30 31 31
52 48 46 43 39 32 35 40 31 30 30 32 32 34 33 33 33 29 26 24 18 17 14 24 25 28 28 29 28 25 34 30 23
50 44 45 41 38 35 32 38 29 29 28 30 33 35 35 33 34 32 29 26 19 18 18 19 24 31 28 30 34 37 35 31 24
46 44 41 40 37 39 33 36 31 27 28 31 31 35 34 34 31 32 31 28 23 22 21 21 22 28 35 34 37 36 30 29 33
42 42 41 40 37 38 40 34 35 29 28 30 30 30 33 33 32 30 30 29 25 25 23 25 25 27 38 42 39 35 32 31 28
39 39 39 39 39 39 41 39 36 31 29 29 28 26 28 31 29 29 30 28 26 26 23 26 28 33 38 42 42 38 35 30 27
36 35 34 34 37 36 38 39 38 32 30 25 25 20 20 25 26 25 27 27 27 24 22 28 27 29 33 36 38 34 34 29 24
40 42 41 37 34 34 36 40 40 33 31 23 15 15 14 15 13 15 20 24 23 22 19 25 24 27 28 32 33 33 29 26 24
43 45 46 46 42 38 35 37 42 38 31 18 11 26 19 7 8 15 15 18 19 21 19 22 20 23 24 28 30 32 30 26 28
Wind_Direction
266 268 275 265 273 276 282 283 283 282 272 266 276 287 286 304 309 328 307 286 277 250 241 231 223 218 228 235 236 243 250 242 250
265 286 276 280 278 287 282 280 283 289 270 260 269 272 288 297 290 322 331 302 276 259 244 238 225 218 223 232 234 241 242 244 242
269 275 277 277 283 287 272 280 285 287 275 262 260 268 268 286 280 305 321 314 280 263 241 230 227 218 217 218 230 233 231 233 240
265 271 273 282 281 270 292 292 278 277 275 257 251 264 265 277 285 304 323 316 289 265 241 225 225 223 220 219 221 219 223 241 235
265 263 276 280 281 273 277 285 285 267 264 258 256 261 261 273 277 301 328 327 296 263 241 225 220 220 221 222 225 229 238 246 244
273 276 281 273 274 278 280 282 279 262 257 260 257 248 260 258 268 290 314 330 310 254 238 219 219 218 215 220 229 238 240 242 238
270 276 277 273 276 277 285 281 269 258 250 246 254 248 245 259 275 290 315 331 314 261 225 215 214 214 204 206 220 245 245 240 237
259 260 266 276 277 265 287 281 267 257 254 248 249 250 237 250 260 285 310 326 323 282 222 208 212 209 209 195 209 224 255 259 229
258 265 271 275 285 275 273 273 265 258 253 251 243 245 243 235 259 273 296 316 326 278 225 205 207 207 218 207 205 211 229 254 236
273 268 274 279 270 280 279 269 265 258 251 244 241 246 239 235 247 263 288 305 330 283 221 212 199 203 212 210 213 228 225 254 258
248 263 268 267 270 274 281 268 262 258 252 243 239 242 243 236 241 252 270 281 309 304 222 205 211 210 221 216 220 225 239 249 261
258 262 265 269 272 282 276 272 263 255 253 246 241 237 239 232 238 244 258 275 298 311 232 213 225 212 207 215 223 225 223 233 254
257 259 264 269 275 270 268 272 267 257 251 248 242 236 234 231 233 239 251 266 287 286 277 243 227 221 213 221 217 222 228 232 250
268 267 265 266 268 266 266 273 270 258 254 248 241 239 234 234 229 239 245 253 270 277 285 265 239 226 223 227 218 225 237 243 249
262 263 263 261 258 264 261 266 271 261 254 253 243 239 236 236 235 236 240 248 259 267 275 280 255 238 233 226 227 239 244 248 253
262 264 263 260 259 259 262 258 263 266 257 251 246 241 238 239 237 240 241 244 250 266 278 285 265 245 234 231 231 247 251 251 246
261 260 259 258 253 252 258 260 262 263 262 256 250 240 237 241 242 242 242 245 252 264 277 291 280 254 239 234 233 241 252 252 245
265 265 263 259 253 248 246 254 255 257 260 262 261 250 240 237 241 244 247 249 253 261 272 285 284 256 240 234 230 237 247 243 246
266 268 266 261 256 254 247 246 247 244 247 250 267 279 252 245 251 256 259 259 260 267 273 284 278 256 245 233 233 235 237 237 235
265 266 268 267 260 251 247 246 249 241 235 220 184 307 265 215 64 16 348 307 288 289 298 300 283 255 245 236 232 235 235 236 239
Height
10986 10992 11000 11005 11002 11003 11001 10999 10996 10997 10996 10998 11000 11001 11002 11002 11001 10999 10996 10995 10994 10994 10995 10998 11003 11006 11011 11020 11026 11030 11033 11035 11038
10985 10984 10990 10991 10993 10992 10992 10993 10991 10989 10989 10990 10993 10995 10996 10997 10997 10995 10992 10989 10988 10989 10989 10991 10994 10998 11005 11012 11018 11024 11028 11030 11032
10977 10981 10974 10982 10985 10984 10984 10985 10983 10983 10982 10983 10986 10990 10991 10992 10991 10989 10987 10983 10981 10980 10981 10983 10985 10990 10996 11003 11010 11016 11021 11024 11027
10969 10971 10963 10966 10979 10978 10977 10978 10978 10977 10977 10978 10980 10983 10985 10986 10986 10984 10982 10977 10971 10969 10971 10974 10978 10982 10988 10995 11003 11008 11014 11017 11021
10954 10960 10958 10958 10956 10966 10968 10969 10971 10970 10970 10971 10974 10976 10978 10981 10981 10979 10975 10971 10964 10962 10963 10967 10971 10976 10981 10988 10995 11001 11005 11011 11014
10943 10944 10952 10953 10950 10950 10957 10959 10959 10963 10962 10963 10965 10970 10971 10974 10975 10973 10972 10966 10959 10956 10957 10961 10966 10971 10975 10982 10989 10995 11000 11004 11009
10933 10940 10939 10944 10944 10942 10944 10947 10951 10952 10955 10957 10959 10963 10967 10968 10967 10967 10965 10964 10956 10953 10954 10957 10963 10967 10971 10978 10984 10989 10991 10995 11000
10930 10936 10933 10932 10937 10937 10935 10939 10940 10944 10944 10948 10952 10955 10959 10962 10964 10964 10963 10957 10954 10952 10952 10954 10959 10965 10971 10975 10980 10983 10987 10991 10996
10918 10930 10931 10930 10924 10929 10929 10930 10933 10935 10937 10940 10945 10948 10951 10956 10959 10961 10959 10957 10953 10951 10951 10953 10957 10962 10966 10970 10975 10978 10983 10986 10991
10911 10919 10921 10919 10918 10920 10920 10921 10924 10928 10930 10934 10937 10940 10945 10949 10953 10956 10956 10950 10952 10950 10951 10954 10956 10959 10963 10966 10971 10973 10978 10981 10983
10899 10906 10910 10909 10907 10913 10914 10912 10915 10918 10922 10924 10928 10933 10938 10944 10948 10951 10954 10951 10952 10950 10950 10952 10954 10957 10959 10962 10965 10969 10971 10973 10974
10895 10897 10899 10902 10901 10909 10908 10901 10908 10910 10912 10916 10920 10926 10930 10936 10941 10944 10948 10948 10947 10947 10947 10947 10951 10953 10956 10958 10960 10962 10964 10966 10968
10885 10889 10891 10893 10894 10901 10897 10894 10900 10901 10904 10908 10912 10916 10921 10926 10932 10934 10938 10941 10942 10941 10942 10943 10945 10949 10951 10951 10953 10954 10955 10960 10962
10872 10879 10879 10884 10886 10888 10889 10884 10891 10892 10896 10899 10903 10907 10913 10918 10924 10929 10932 10934 10936 10936 10936 10937 10937 10941 10944 10946 10945 10944 10949 10953 10957
10861 10865 10868 10871 10876 10874 10879 10878 10880 10884 10888 10890 10895 10900 10906 10912 10917 10922 10925 10927 10929 10930 10930 10931 10931 10934 10938 10940 10939 10940 10944 10947 10950
10854 10856 10858 10862 10866 10867 10865 10872 10872 10876 10880 10882 10888 10894 10901 10905 10911 10915 10917 10920 10923 10924 10924 10924 10924 10923 10926 10929 10933 10934 10936 10940 10942
10843 10846 10848 10851 10855 10860 10859 10863 10867 10871 10874 10878 10883 10890 10895 10899 10904 10908 10910 10913 10915 10917 10917 10917 10917 10916 10916 10918 10924 10928 10931 10933 10935
10834 10836 10837 10840 10843 10849 10852 10854 10855 10863 10869 10875 10880 10886 10890 10895 10899 10903 10906 10908 10910 10910 10910 10909 10908 10908 10909 10911 10915 10920 10923 10926 10928
10826 10825 10826 10829 10833 10837 10841 10842 10845 10853 10859 10868 10880 10890 10893 10896 10899 10901 10902 10902 10902 10901 10900 10900 10900 10901 10902 10902 10906 10910 10915 10918 10921
10816 10816 10815 10816 10819 10824 10828 10831 10834 10843 10853 10862 10862 10868 10893 10897 10900 10902 10902 10899 10897 10897 10894 10892 10892 10895 10896 10897 10899 10902 10905 10910 10915